This demonstration page uses our WeatherBlox Daily Observations layout. Learn more.

39.01783, -85.05884

Hourly Observations for November 5, 2019

Temp ( °F °C ) Dew Point ( °F °C ) Humidity (%) Winds ( mph kmh ) Pressure ( in mb ) Visibility ( mi km ) Precip ( " mm )
12:52 am 00:52 Cloudy 51 10.6 33 0.6 50 50 W 6 9 30.13 1020 10 16.0934 0 0
1:52 am 01:52 Cloudy 49 9.4 36 2.2 61 61 W 3 6 30.13 1020 10 16.0934 0 0
2:52 am 02:52 Cloudy 49 9.4 41 5 74 74 NW 3 6 30.14 1021 10 16.0934 0 0
3:52 am 03:52 Cloudy 49 9.4 41 5 74 74 NW 10 17 30.15 1021 10 16.0934 0 0
4:52 am 04:52 Cloudy with Light Rain 47 8.3 41 5 80 80 WNW 7 11 30.16 1022 10 16.0934 0.001 0.001
5:52 am 05:52 Cloudy with Light Rain 47 8.3 42 5.6 83 83 NW 10 17 30.19 1022 8 12.87472 0.01 0.254
6:24 am 06:24 Cloudy with Light Rain 46 7.8 41 5 83 83 NW 14 22 30.22 1023 9 14.48406 0.02 0.508
6:39 am 06:39 Cloudy with Light Rain 46 7.8 41 5 83 83 NW 13 20 30.24 1024 9 14.48406 0.02 0.508
6:52 am 06:52 Cloudy with Light Rain 45 7.2 41 5 86 86 WNW 9 15 30.22 1023 7 11.26538 0.03 0.762
7:26 am 07:26 Cloudy with Light Rain 44 6.7 40 4.4 85 85 NW 13 20 30.26 1025 5 8.0467 0.03 0.762
7:52 am 07:52 Cloudy with Light Rain 43 6.1 40 4.4 89 89 NW 12 19 30.26 1025 6 9.65604 0.06 1.524
9:52 am 09:52 Cloudy with Light Rain 42 5.6 38 3.3 85 85 NW 5 7 30.29 1026 8 12.87472 0.02 0.508
10:52 am 10:52 Cloudy 44 6.7 38 3.3 79 79 VRB 3 6 30.29 1026 10 16.0934 0.001 0.001
10:56 am 10:56 Cloudy 44 6.7 38 3.3 79 79 NNW 3 6 30.31 1026 10 16.0934 0 0
11:52 am 11:52 Mostly Cloudy 46 7.8 38 3.3 73 73 W 6 9 30.29 1026 10 16.0934 0 0
12:52 pm 12:52 Mostly Cloudy 47 8.3 34 1.1 61 61 WNW 5 7 30.27 1025 10 16.0934 0 0
1:52 pm 13:52 Mostly Cloudy 50 10 35 1.7 57 57 WNW 10 17 30.26 1025 10 16.0934 0 0
2:52 pm 14:52 Partly Cloudy 49 9.4 33 0.6 55 55 WNW 9 15 30.27 1025 10 16.0934 0 0
3:52 pm 15:52 Mostly Sunny 50 10 31 -0.6 48 48 W 12 19 30.27 1025 10 16.0934 0 0
4:52 pm 16:52 Mostly Sunny 49 9.4 31 -0.6 50 50 W 10 17 30.3 1026 10 16.0934 0 0
5:52 pm 17:52 Clear 45 7.2 31 -0.6 58 58 WSW 5 7 30.31 1027 10 16.0934 0 0
6:52 pm 18:52 Clear 43 6.1 32 0 65 65 Calm 30.34 1027 10 16.0934 0 0
7:52 pm 19:52 Clear 44 6.7 31 -0.6 60 60 Calm 30.34 1028 10 16.0934 0 0
8:52 pm 20:52 Clear 39 3.9 31 -0.6 73 73 Calm 30.36 1028 10 16.0934 0 0
9:52 pm 21:52 Clear 38 3.3 32 0 79 79 Calm 30.38 1029 10 16.0934 0 0
10:52 pm 22:52 Clear 37 2.8 30 -1.1 76 76 W 3 6 30.38 1029 10 16.0934 0 0
11:52 pm 23:52 Clear 35 1.7 29 -1.7 78 78 WNW 6 9 30.37 1029 10 16.0934 0 0

Powered by AerisWeather